• In Romania
  • List of Countries
  • For 7 days
  • Water Temperature
  • Satellite Maps
  • Weather Map
  • Weather Widgets
  • user-avatar
    Login

    Hourly Weather Komissarovka

    Today, 24 September, Monday

    Time Temperature Precipitation Wind Pressure Humidity
    00:00 +7°C° 0 mm 4 mps 740 mmHg 87%
    01:00 +8°C° 0 mm 3 mps 740 mmHg 89%
    02:00 +8°C° 0 mm 3 mps 740 mmHg 90%
    03:00 +7°C° 0 mm 3 mps 740 mmHg 93%
    04:00 +7°C° 0 mm 3 mps 740 mmHg 93%
    05:00 +5°C° 0 mm 3 mps 740 mmHg 94%
    06:00 +5°C° 0 mm 3 mps 740 mmHg 94%
    07:00 +7°C° 0 mm 3 mps 740 mmHg 89%
    08:00 +9°C° 0 mm 3 mps 740 mmHg 84%
    09:00 +10°C° 0 mm 3 mps 740 mmHg 79%
    10:00 +11°C° 0 mm 4 mps 740 mmHg 74%
    11:00 +12°C° 0 mm 5 mps 740 mmHg 69%
    12:00 +13°C° 0 mm 5 mps 739 mmHg 63%
    13:00 +11°C° 0.2 mm 6 mps 739 mmHg 66%
    14:00 +11°C° 0.2 mm 6 mps 738 mmHg 68%
    15:00 +10°C° 0 mm 6 mps 738 mmHg 71%
    16:00 +9°C° 0.8 mm 7 mps 737 mmHg 74%
    17:00 +9°C° 0.8 mm 7 mps 736 mmHg 77%
    18:00 +7°C° 0.8 mm 8 mps 736 mmHg 81%
    19:00 +9°C° 1.4 mm 8 mps 735 mmHg 82%
    20:00 +8°C° 1.4 mm 9 mps 734 mmHg 83%
    21:00 +8°C° 1.4 mm 9 mps 733 mmHg 84%
    22:00 +10°C° 0.4 mm 9 mps 732 mmHg 85%
    23:00 +10°C° 0.4 mm 9 mps 732 mmHg 86%

    Tomorrow, 25 September, Tuesday

    Time Temperature Precipitation Wind Pressure Humidity
    00:00 +10°C° 0.4 mm 8 mps 731 mmHg 87%
    01:00 +9°C° 0.1 mm 8 mps 731 mmHg 86%
    02:00 +9°C° 0.1 mm 7 mps 731 mmHg 86%
    03:00 +8°C° 0.1 mm 7 mps 731 mmHg 85%
    04:00 +8°C° 0 mm 7 mps 731 mmHg 84%
    05:00 +8°C° 0 mm 6 mps 731 mmHg 83%
    06:00 +7°C° 0 mm 6 mps 732 mmHg 83%
    07:00 +6°C° 0 mm 7 mps 732 mmHg 82%
    08:00 +6°C° 0 mm 7 mps 732 mmHg 81%
    09:00 +8°C° 0 mm 7 mps 733 mmHg 80%
    10:00 +8°C° 0.1 mm 7 mps 733 mmHg 77%
    11:00 +8°C° 0.1 mm 7 mps 734 mmHg 75%
    12:00 +9°C° 0.1 mm 7 mps 734 mmHg 73%
    13:00 +9°C° 0.1 mm 7 mps 735 mmHg 72%
    14:00 +9°C° 0.1 mm 7 mps 735 mmHg 72%
    15:00 +9°C° 0.1 mm 7 mps 736 mmHg 71%
    16:00 +8°C° 0.1 mm 7 mps 737 mmHg 72%
    17:00 +8°C° 0.1 mm 7 mps 737 mmHg 73%
    18:00 +6°C° 0.1 mm 7 mps 738 mmHg 74%
    19:00 +7°C° 0 mm 6 mps 738 mmHg 75%
    20:00 +5°C° 0 mm 6 mps 739 mmHg 76%
    21:00 +5°C° 0 mm 6 mps 740 mmHg 77%
    22:00 +6°C° 0 mm 5 mps 740 mmHg 78%
    23:00 +5°C° 0 mm 5 mps 741 mmHg 78%

    Day after tomorrow, 26 September, Wednesday

    Time Temperature Precipitation Wind Pressure Humidity
    00:00 +5°C° 0 mm 5 mps 741 mmHg 78%
    01:00 +5°C° 0 mm 5 mps 742 mmHg 80%
    02:00 +5°C° 0 mm 5 mps 742 mmHg 81%
    03:00 +3°C° 0 mm 5 mps 743 mmHg 82%
    04:00 +3°C° 0 mm 5 mps 744 mmHg 83%
    05:00 +2°C° 0 mm 5 mps 744 mmHg 85%
    06:00 +3°C° 0 mm 4 mps 745 mmHg 86%
    07:00 +3°C° 0 mm 5 mps 745 mmHg 82%
    08:00 +3°C° 0 mm 5 mps 746 mmHg 79%
    09:00 +4°C° 0 mm 6 mps 747 mmHg 75%
    10:00 +6°C° 0 mm 5 mps 747 mmHg 70%
    11:00 +6°C° 0 mm 5 mps 747 mmHg 65%
    12:00 +7°C° 0 mm 5 mps 748 mmHg 60%
    13:00 +8°C° 0 mm 5 mps 748 mmHg 57%
    14:00 +8°C° 0 mm 5 mps 748 mmHg 53%
    15:00 +9°C° 0 mm 5 mps 748 mmHg 50%
    16:00 +8°C° 0 mm 4 mps 748 mmHg 53%
    17:00 +8°C° 0 mm 3 mps 748 mmHg 57%
    18:00 +7°C° 0 mm 3 mps 748 mmHg 61%
    19:00 +5°C° 0 mm 3 mps 748 mmHg 63%
    20:00 +5°C° 0 mm 3 mps 748 mmHg 65%
    21:00 +4°C° 0 mm 3 mps 748 mmHg 67%
    22:00 +4°C° 0 mm 4 mps 747 mmHg 67%
    23:00 +4°C° 0 mm 4 mps 747 mmHg 67%

    27 September, Thursday

    Time Temperature Precipitation Wind Pressure Humidity
    00:00 +3°C° 0 mm 5 mps 747 mmHg 67%
    01:00 +3°C° 0 mm 5 mps 746 mmHg 67%
    02:00 +3°C° 0 mm 6 mps 745 mmHg 68%
    03:00 +4°C° 0 mm 7 mps 744 mmHg 69%
    04:00 +4°C° 0.2 mm 7 mps 743 mmHg 68%
    05:00 +4°C° 0.2 mm 8 mps 742 mmHg 68%
    06:00 +3°C° 0.2 mm 9 mps 741 mmHg 68%
    07:00 +3°C° 0.8 mm 9 mps 741 mmHg 71%
    08:00 +3°C° 0.8 mm 10 mps 740 mmHg 74%
    09:00 +3°C° 0.8 mm 11 mps 739 mmHg 77%
    10:00 +3°C° 0.7 mm 10 mps 739 mmHg 79%
    11:00 +5°C° 0.7 mm 10 mps 738 mmHg 81%
    12:00 +5°C° 0.7 mm 10 mps 738 mmHg 83%
    13:00 +6°C° 0.3 mm 9 mps 738 mmHg 84%
    14:00 +6°C° 0.3 mm 9 mps 738 mmHg 84%
    15:00 +7°C° 0.3 mm 8 mps 738 mmHg 84%
    16:00 +7°C° 0.1 mm 8 mps 738 mmHg 84%
    17:00 +8°C° 0.1 mm 7 mps 738 mmHg 84%
    18:00 +8°C° 0.1 mm 6 mps 738 mmHg 83%
    19:00 +8°C° 0 mm 6 mps 739 mmHg 85%
    20:00 +7°C° 0 mm 6 mps 739 mmHg 86%
    21:00 +7°C° 0 mm 5 mps 740 mmHg 88%
    22:00 +6°C° 0 mm 5 mps 740 mmHg 88%
    23:00 +6°C° 0 mm 5 mps 740 mmHg 88%

    28 September, Friday

    Time Temperature Precipitation Wind Pressure Humidity
    00:00 +6°C° 0 mm 5 mps 740 mmHg 87%
    01:00 +6°C° 0 mm 5 mps 740 mmHg 88%
    02:00 +6°C° 0 mm 5 mps 740 mmHg 89%
    03:00 +5°C° 0 mm 5 mps 741 mmHg 90%
    04:00 +5°C° 0 mm 4 mps 741 mmHg 91%
    05:00 +5°C° 0 mm 4 mps 740 mmHg 92%
    06:00 +5°C° 0 mm 4 mps 740 mmHg 93%
    07:00 +6°C° 0 mm 5 mps 740 mmHg 89%
    08:00 +7°C° 0 mm 6 mps 740 mmHg 85%
    09:00 +8°C° 0 mm 6 mps 739 mmHg 81%
    10:00 +9°C° 0 mm 8 mps 739 mmHg 81%
    11:00 +10°C° 0 mm 9 mps 738 mmHg 81%
    12:00 +11°C° 0 mm 10 mps 737 mmHg 81%
    13:00 +11°C° 0.1 mm 10 mps 737 mmHg 81%
    14:00 +11°C° 0.1 mm 9 mps 736 mmHg 82%
    15:00 +11°C° 0.1 mm 9 mps 735 mmHg 83%
    16:00 +11°C° 0.2 mm 9 mps 735 mmHg 83%
    17:00 +12°C° 0.2 mm 10 mps 735 mmHg 83%
    18:00 +12°C° 0.2 mm 10 mps 735 mmHg 83%
    19:00 +10°C° 0.3 mm 9 mps 736 mmHg 82%
    20:00 +9°C° 0.3 mm 8 mps 737 mmHg 82%
    21:00 +8°C° 0.3 mm 7 mps 738 mmHg 81%
    22:00 +7°C° 0 mm 6 mps 739 mmHg 83%
    23:00 +5°C° 0 mm 5 mps 740 mmHg 85%

    29 September, Saturday

    Time Temperature Precipitation Wind Pressure Humidity
    00:00 +4°C° 0 mm 4 mps 741 mmHg 86%
    01:00 +4°C° 0 mm 3 mps 742 mmHg 88%
    02:00 +3°C° 0 mm 3 mps 742 mmHg 90%
    03:00 +2°C° 0 mm 3 mps 743 mmHg 92%
    04:00 +3°C° 0 mm 2 mps 743 mmHg 92%
    05:00 +3°C° 0 mm 2 mps 744 mmHg 92%
    06:00 +3°C° 0 mm 1 mps 744 mmHg 93%
    07:00 +4°C° 0 mm 1 mps 745 mmHg 87%
    08:00 +5°C° 0 mm 1 mps 745 mmHg 80%
    09:00 +6°C° 0 mm 1 mps 745 mmHg 74%
    10:00 +8°C° 0 mm 1 mps 746 mmHg 68%
    11:00 +9°C° 0 mm 1 mps 746 mmHg 61%
    12:00 +10°C° 0 mm 1 mps 746 mmHg 54%
    13:00 +10°C° 0 mm 1 mps 746 mmHg 52%
    14:00 +9°C° 0 mm 2 mps 745 mmHg 50%
    15:00 +10°C° 0 mm 2 mps 745 mmHg 48%
    16:00 +10°C° 0 mm 1 mps 745 mmHg 52%
    17:00 +10°C° 0 mm 1 mps 745 mmHg 55%
    18:00 +9°C° 0 mm 1 mps 745 mmHg 58%
    19:00 +8°C° 0 mm 1 mps 746 mmHg 60%
    20:00 +7°C° 0 mm 1 mps 746 mmHg 62%
    21:00 +7°C° 0 mm 1 mps 747 mmHg 65%
    22:00 +6°C° 0 mm 1 mps 747 mmHg 67%
    23:00 +6°C° 0 mm 1 mps 747 mmHg 69%
    Show more